{"data":{"norad_id":55290,"epoch":"2026-05-24T19:57:47.541600Z","epoch_age_seconds":93042,"freshness":"FRESH","line1":"1 55290U 23010X   26144.83180025 -.00000080  00000+0  11256-5 0  9999","line2":"2 55290  69.9989 192.5080 0003658 267.0976  92.9764 14.98330710184676","mean_motion":14.9833071,"eccentricity":0.0003658,"inclination_deg":69.9989,"raan_deg":192.508,"arg_perigee_deg":267.0976,"mean_anomaly_deg":92.9764,"bstar":1.1256e-6,"rev_number":18467,"period_min":96.106953584366,"perigee_km":569.5113155725,"apogee_km":574.5960750852,"semimajor_km":6950.1906953289,"source":"CELESTRAK","updated_at":"2026-05-25T13:38:17.735021Z"}}